Weather History for Florence, Italy

Change the Weather History Date:

Friday, August 23, 2013

  Actual Average Record
Temperature  
Mean Temperature 76 °F -  
Max Temperature 89 °F 82 °F 100 °F (2011)
Min Temperature 62 °F 59 °F 60 °F (1996)
Cooling Degree Days 10    
Growing Degree Days 26 (Base 50)    
Moisture  
Dew Point 60 °F    
Average Humidity 59    
Maximum Humidity 88    
Minimum Humidity 29    
Precipitation  
Precipitation 0.00 in 0.10 in - ()
Sea Level Pressure  
Sea Level Pressure 29.96 in    
Wind  
Wind Speed 3 mph ()    
Max Wind Speed 13 mph    
Max Gust Speed -    
Visibility 6.2 miles    
Events      
Averages and records for this station are not official NWS values.
T = Trace of Precipitation, MM = Missing Value Source: Averaged Metar Reports

Daily Weather History Graph

Daily Weather History Graph

Search for Another Location

Airport:

Trip Planner

Search our weather history database for the weather conditions in past years. The results will help you decide how hot, cold, wet, or windy it might be!

Date:

Astronomy

Aug. 23, 2013 Rise Set
Actual Time 6:28 AM CEST 8:06 PM CEST
Civil Twilight 5:58 AM CEST 8:36 PM CEST
Nautical Twilight 5:21 AM CEST 9:13 PM CEST
Astronomical Twilight 4:41 AM CEST 9:52 PM CEST
Moon 9:07 PM CEST (8/23) 9:12 AM CEST (8/23)
Length of Visible Light 14h 38m
Length of Day
13h 37m
Waning Gibbous, 93% of the Moon is Illuminated
Aug 23
Waning Gibbous
Aug 28
Last Quarter
Sep 5
New
Sep 12
First Quarter
Sep 19
Full

Hourly Weather History & Observations

Time (CEST) Temp. Heat Index Dew Point Humidity Pressure Visibility Wind Dir Wind Speed Gust Speed Precip Events Conditions
12:20 AM 71.6 °F - 60.8 °F 69% 29.98 in - South 3.5 mph - N/A   Clear
12:50 AM 71.6 °F - 60.8 °F 69% 29.98 in - Variable 2.3 mph - N/A   Clear
1:20 AM 69.8 °F - 60.8 °F 73% 29.98 in - East 3.5 mph - N/A   Clear
1:50 AM 68.0 °F - 60.8 °F 78% 29.98 in - East 4.6 mph - N/A   Clear
2:20 AM 68.0 °F - 60.8 °F 78% 29.98 in - Variable 1.2 mph - N/A   Clear
2:50 AM 68.0 °F - 60.8 °F 78% 29.98 in - Variable 1.2 mph - N/A   Clear
3:20 AM 68.0 °F - 60.8 °F 78% 29.98 in - SSE 3.5 mph - N/A   Clear
3:50 AM 66.2 °F - 60.8 °F 83% 29.98 in - East 4.6 mph - N/A   Clear
4:20 AM 64.4 °F - 60.8 °F 88% 29.98 in - ENE 4.6 mph - N/A   Clear
5:20 AM 64.4 °F - 60.8 °F 88% 29.98 in - Variable 2.3 mph - N/A   Clear
5:50 AM 64.4 °F - 59.0 °F 83% 29.98 in - ENE 2.3 mph - N/A   Clear
6:20 AM 62.6 °F - 59.0 °F 88% 29.98 in - ENE 2.3 mph - N/A   Clear
6:50 AM 62.6 °F - 59.0 °F 88% 29.98 in - ENE 2.3 mph - N/A   Clear
7:20 AM 64.4 °F - 60.8 °F 88% 29.98 in - Variable 2.3 mph - N/A   Clear
7:50 AM 66.2 °F - 62.6 °F 88% 29.98 in - Variable 2.3 mph - N/A   Clear
8:20 AM 69.8 °F - 60.8 °F 73% 29.98 in - Variable 1.2 mph - N/A   Clear
8:50 AM 71.6 °F - 60.8 °F 69% 30.01 in - Variable 1.2 mph - N/A   Clear
9:20 AM 73.4 °F - 60.8 °F 65% 30.01 in - Variable 1.2 mph - N/A   Clear
9:50 AM 75.2 °F - 60.8 °F 61% 29.98 in - Variable 2.3 mph - N/A   Clear
10:20 AM 77.0 °F - 59.0 °F 54% 29.98 in - Variable 1.2 mph - N/A   Clear
10:50 AM 78.8 °F - 60.8 °F 54% 29.98 in - Variable 2.3 mph - N/A   Clear
11:20 AM 80.6 °F 81.1 °F 59.0 °F 48% 29.98 in - Variable 2.3 mph - N/A   Clear
11:50 AM 82.4 °F 82.0 °F 57.2 °F 42% 29.98 in - Variable 2.3 mph - N/A   Clear
12:20 PM 84.2 °F 83.0 °F 55.4 °F 37% 29.98 in - Variable 3.5 mph - N/A   Clear
12:50 PM 86.0 °F 84.2 °F 53.6 °F 33% 29.98 in - Variable 2.3 mph - N/A   Clear
1:20 PM 87.8 °F 85.7 °F 53.6 °F 31% 29.95 in - Variable 2.3 mph - N/A   Clear
1:50 PM 86.0 °F 84.2 °F 53.6 °F 33% 29.95 in 6.2 mi Variable 4.6 mph - N/A   Partly Cloudy
2:20 PM 87.8 °F 86.5 °F 57.2 °F 35% 29.95 in 6.2 mi Variable 3.5 mph - N/A   Partly Cloudy
2:50 PM 87.8 °F 86.5 °F 57.2 °F 35% 29.95 in 6.2 mi West 5.8 mph - N/A   Partly Cloudy
3:20 PM 87.8 °F 86.5 °F 57.2 °F 35% 29.92 in 6.2 mi SSW 5.8 mph - N/A   Partly Cloudy
3:50 PM 87.8 °F 86.5 °F 57.2 °F 35% 29.92 in 6.2 mi Variable 6.9 mph - N/A   Partly Cloudy
4:20 PM 89.6 °F 87.7 °F 55.4 °F 31% 29.92 in 6.2 mi WSW 6.9 mph - N/A   Partly Cloudy
4:50 PM 89.6 °F 87.3 °F 53.6 °F 29% 29.92 in 6.2 mi Variable 4.6 mph - N/A   Partly Cloudy
5:20 PM 87.8 °F 86.1 °F 55.4 °F 33% 29.89 in 6.2 mi West 6.9 mph - N/A   Partly Cloudy
5:50 PM 87.8 °F 86.5 °F 57.2 °F 35% 29.92 in 6.2 mi SW 12.7 mph - N/A   Partly Cloudy
6:20 PM 86.0 °F 85.4 °F 59.0 °F 40% 29.89 in 6.2 mi SW 12.7 mph - N/A   Partly Cloudy
6:50 PM 84.2 °F 83.8 °F 59.0 °F 42% 29.89 in 6.2 mi WSW 11.5 mph - N/A   Partly Cloudy
7:20 PM 84.2 °F 83.8 °F 59.0 °F 42% 29.92 in - WSW 9.2 mph - N/A   Clear
7:50 PM 82.4 °F 82.5 °F 59.0 °F 45% 29.92 in - SW 9.2 mph - N/A   Clear
8:20 PM 80.6 °F 81.1 °F 59.0 °F 48% 29.92 in - SW 5.8 mph - N/A   Clear
8:50 PM 78.8 °F - 60.8 °F 54% 29.95 in - SSW 4.6 mph - N/A   Clear
9:20 PM 78.8 °F - 60.8 °F 54% 29.95 in - SW 6.9 mph - N/A   Clear
9:50 PM 77.0 °F - 64.4 °F 65% 29.98 in - SW 6.9 mph - N/A   Clear
10:20 PM 75.2 °F - 64.4 °F 69% 29.98 in - South 3.5 mph - N/A   Clear
10:50 PM 73.4 °F - 66.2 °F 78% 29.98 in - Variable 2.3 mph - N/A   Clear
11:20 PM 73.4 °F - 66.2 °F 78% 29.98 in - SE 3.5 mph - N/A   Clear
11:50 PM 71.6 °F - 66.2 °F 83% 29.98 in - Calm Calm - N/A   Clear